Content
SEND FEEDBACK

Daily
Averages
Monthly
Summary
United States of America

ST. LOUIS, MISSOURI


Home > North America > United States > Missouri
Elevation: 535 feet     Latitude: 38 45N     Longitude: 090 22W

WEATHER
 
SELECT A DAY
Number of Records: 196,477;   Date Range: 1/1/95 - 8/28/14
 
SHARE

PRINT THIS DATA

[ ← Previous Day ]
WEATHER ALMANAC - APRIL 25, 2013
[ Next Day → ]
[ °C ]   °F
Weather ElementAverageHighLow
Temperature52.2 °F64 °F (3:54 pm)36 °F (1:54 am)
Dewpoint31.6 °F39.9 °F (8:54 pm)25 °F (10:54 am)
Humidity49.1 %89 % (2:54 am)28 % (5:54 pm)
Barometer30.30 in30.36 in (10:54 am)30.25 in (2:54 am)
Wind Speed5.7 mph11.5 mph (4:54 am)
Wind Gust20.7 mph (12:54 pm)
Weather ElementAverage
Visibility10 mi
Wind DirectionESE (110.4 °)

Weather ElementTotal
Precipitation---
Heating Degree Days15 (Base 65)
Averaged from 23 records on April 25, 2013
WEATHER CONDITIONS BREAKOUT
WIND DIRECTION BREAKOUT
WEATHER BY HOUR - APRIL 25, 2013
[ °C ]   °F
Local TimeTemperatureDewpointHumidityBarometerVisibilityWind DirectionWind SpeedGust SpeedPrecipitationEventsConditions
1:54 AM36.0 °F32.0 °F86 %30.26 in10.0 miCalmClear
2:54 AM36.0 °F33.1 °F89 %30.25 in10.0 miCalmClear
3:54 AM41.0 °F30.0 °F65 %30.25 in10.0 miWSW (240°)9.2 mphClear
4:54 AM43.0 °F28.9 °F58 %30.25 in10.0 miWSW (240°)11.5 mphClear
5:54 AM41.0 °F28.9 °F62 %30.27 in10.0 miWSW (250°)9.2 mphClear
6:54 AM41.0 °F30.9 °F67 %30.29 in10.0 miWest (260°)8.1 mphClear
7:54 AM45.0 °F33.1 °F63 %30.31 in10.0 miWest (260°)9.2 mphClear
8:54 AM48.9 °F34.0 °F56 %30.34 in10.0 miWest (270°)8.1 mphClear
9:54 AM53.1 °F30.0 °F41 %30.35 in10.0 miWNW (300°)10.4 mphClear
10:54 AM54.0 °F25.0 °F33 %30.36 in10.0 miVariable4.6 mphClear
11:54 AM57.0 °F27.0 °F32 %30.36 in10.0 miVariable5.8 mphClear
12:54 PM60.1 °F28.9 °F31 %30.35 in10.0 miWest (280°)11.5 mph20.7 mphPartly Cloudy
1:54 PM60.1 °F28.0 °F30 %30.34 in10.0 miVariable4.6 mphPartly Cloudy
2:54 PM62.1 °F30.0 °F30 %30.32 in10.0 miCalmClear
3:54 PM64.0 °F30.9 °F29 %30.30 in10.0 miNNE (20°)8.1 mphScattered Clouds
4:54 PM64.0 °F30.9 °F29 %30.28 in10.0 miNNE (20°)5.8 mphPartly Cloudy
5:54 PM64.0 °F30.0 °F28 %30.29 in10.0 miCalmScattered Clouds
6:54 PM60.1 °F34.0 °F38 %30.28 in10.0 miENE (70°)9.2 mphClear
7:54 PM55.0 °F39.0 °F55 %30.28 in10.0 miCalmClear
8:54 PM51.1 °F39.9 °F66 %30.29 in10.0 miCalmClear
9:54 PM55.9 °F33.1 °F42 %30.30 in10.0 miESE (110°)6.9 mphClear
10:54 PM54.0 °F35.1 °F49 %30.30 in10.0 miSE (130°)4.6 mphClear
11:54 PM53.1 °F35.1 °F50 %30.30 in10.0 miEast (90°)3.5 mphClear
Hourly data recorded from KSUS, located miles away from St. Louis, Missouri







STORIES FROM OUR PARTNERS